EW5413 Weather Reports


time (UTC)temp
C
wind
direction
speed
KPH
gust
KPH
rain 1hr
cm
rain 24hr
cm
rain mn
cm
humidity
%
barometer
mb
20260508182029 8 293 6.4 16.1 0.00 0.08 0.08 70 1017.7
20260508181020 8 293 6.4 12.9 0.00 0.08 0.08 68 1017.6
20260508180049 8 293 6.4 14.5 0.00 0.08 0.08 68 1017.6
20260508175046 8 293 6.4 12.9 0.00 0.08 0.08 68 1017.4
20260508174021 8 270 4.8 11.3 0.00 0.08 0.08 67 1017.3
20260508173034 8 293 8.0 16.1 0.00 0.08 0.08 67 1017.1
20260508172020 8 293 9.7 20.9 0.00 0.08 0.08 66 1017.0
20260508171028 8 315 8.0 16.1 0.00 0.08 0.08 68 1016.9
20260508170101 8 293 9.7 17.7 0.00 0.08 0.08 67 1016.8
20260508165021 8 293 6.4 14.5 0.00 0.08 0.08 67 1016.5
20260508164028 8 293 9.7 20.9 0.00 0.08 0.08 67 1016.4
20260508163025 9 293 8.0 19.3 0.00 0.08 0.08 68 1016.4
20260508162041 9 293 6.4 16.1 0.00 0.08 0.08 69 1016.3
20260508161028 8 293 9.7 19.3 0.00 0.08 0.08 68 1016.2
20260508160020 9 270 6.4 14.5 0.00 0.08 0.08 68 1016.2
20260508155020 9 293 8.0 19.3 0.00 0.08 0.08 67 1016.1
20260508154021 10 270 6.4 12.9 0.00 0.08 0.08 64 1015.7
20260508153020 10 270 6.4 14.5 0.00 0.08 0.08 63 1015.7
20260508152040 10 270 8.0 24.1 0.00 0.08 0.08 62 1015.6
20260508151021 10 270 6.4 11.3 0.00 0.08 0.08 61 1015.5
20260508150029 10 270 6.4 16.1 0.00 0.08 0.08 64 1015.4
20260508145029 10 270 9.7 19.3 0.00 0.08 0.08 65 1015.3
20260508144028 10 270 8.0 17.7 0.00 0.08 0.08 63 1015.2
20260508143109 10 270 8.0 19.3 0.00 0.08 0.08 65 1015.1
20260508142020 10 270 9.7 22.5 0.00 0.08 0.08 65 1015.1
20260508141020 10 270 6.4 17.7 0.00 0.08 0.08 67 1015.0
20260508140020 10 270 8.0 17.7 0.00 0.08 0.08 66 1014.8
20260508135020 10 270 4.8 11.3 0.00 0.08 0.08 66 1014.6
20260508134020 10 270 6.4 12.9 0.00 0.08 0.08 67 1014.5
20260508133020 10 270 6.4 11.3 0.00 0.08 0.08 68 1014.3
20260508132020 10 270 6.4 16.1 0.00 0.08 0.08 68 1014.4
20260508131020 10 270 9.7 20.9 0.00 0.08 0.08 69 1014.2
20260508130021 10 270 6.4 16.1 0.00 0.08 0.08 72 1014.0
20260508125030 8 270 6.4 11.3 0.00 0.08 0.08 74 1013.9
20260508124021 8 270 8.0 20.9 0.00 0.08 0.08 73 1013.9
20260508123019 9 270 8.0 19.3 0.00 0.08 0.08 75 1013.7
20260508122049 9 248 8.0 19.3 0.00 0.08 0.08 74 1013.6
20260508121038 9 248 9.7 20.9 0.00 0.08 0.08 74 1013.4
20260508120019 9 270 8.0 16.1 0.00 0.08 0.08 76 1013.3
20260508115037 8 270 4.8 12.9 0.00 0.08 0.08 77 1013.1
20260508114025 8 270 4.8 14.5 0.00 0.08 0.08 77 1012.9
20260508113036 8 270 4.8 14.5 0.00 0.08 0.08 76 1012.8
20260508112021 8 270 8.0 19.3 0.00 0.08 0.08 73 1012.8
20260508111036 9 248 8.0 14.5 0.00 0.08 0.08 70 1012.4
20260508110030 9 225 6.4 17.7 0.00 0.08 0.08 71 1012.1
20260508105029 8 203 3.2 12.9 0.00 0.08 0.08 73 1012.0
20260508104037 8 203 6.4 14.5 0.00 0.08 0.08 73 1012.0
20260508103038 8 248 9.7 17.7 0.00 0.08 0.08 74 1011.9
20260508102019 8 248 8.0 17.7 0.00 0.08 0.08 73 1011.8
20260508101037 9 158 8.0 19.3 0.00 0.08 0.08 73 1011.4
20260508100020 8 225 6.4 16.1 0.03 0.08 0.08 74 1011.2
20260508095019 8 248 3.2 8.0 0.03 0.08 0.08 75 1011.1
20260508094028 8 203 4.8 12.9 0.03 0.08 0.08 77 1011.0
20260508093020 8 158 6.4 14.5 0.03 0.08 0.08 77 1011.0
20260508092028 7 158 4.8 12.9 0.03 0.08 0.08 77 1010.9
20260508091044 7 248 6.4 14.5 0.03 0.08 0.08 76 1010.9
20260508090020 8 270 8.0 16.1 0.00 0.05 0.05 76 1010.7
20260508085028 8 180 9.7 19.3 0.00 0.05 0.05 74 1010.6
20260508084024 8 180 9.7 20.9 0.03 0.05 0.05 74 1010.5
20260508083030 8 203 6.4 17.7 0.03 0.05 0.05 76 1010.3
20260508082027 8 158 11.3 30.6 0.03 0.05 0.05 77 1010.1
20260508081019 7 180 8.0 17.7 0.03 0.05 0.05 78 1010.1
20260508080020 7 158 6.4 16.1 0.03 0.05 0.05 78 1010.1
20260508075019 7 158 6.4 16.1 0.03 0.05 0.05 77 1010.0
20260508074028 7 180 6.4 12.9 0.00 0.05 0.05 76 1009.7
20260508073037 8 158 11.3 24.1 0.00 0.05 0.05 74 1009.5
20260508072036 8 158 8.0 27.4 0.00 0.05 0.05 74 1009.2
20260508071048 7 158 11.3 22.5 0.00 0.05 0.05 74 1009.1
20260508070020 7 180 9.7 22.5 0.03 0.05 0.05 75 1008.9
20260508065033 7 158 4.8 11.3 0.03 0.05 0.05 76 1008.9
20260508064040 7 158 4.8 12.9 0.03 0.05 0.05 76 1008.8
20260508063030 7 180 3.2 11.3 0.03 0.05 0.05 77 1008.8
20260508062030 7 225 6.4 16.1 0.03 0.05 0.05 77 1008.5
20260508061028 7 203 8.0 20.9 0.03 0.05 0.05 75 1008.4
20260508060019 7 180 6.4 16.1 0.00 0.03 0.03 73 1008.0
20260508055020 7 225 11.3 24.1 0.00 0.03 0.03 72 1008.1
20260508054033 8 158 9.7 29.0 0.00 0.03 0.03 71 1007.9
20260508053028 8 158 9.7 24.1 0.00 0.03 0.03 71 1008.0
20260508052019 8 158 4.8 17.7 0.00 0.03 0.03 70 1008.0
20260508051041 8 158 6.4 14.5 0.00 0.03 0.03 70 1007.8
20260508050032 8 158 8.0 17.7 0.00 0.03 0.03 70 1007.7
20260508045040 8 225 9.7 22.5 0.00 0.03 0.03 70 1007.6
20260508044019 8 180 4.8 12.9 0.00 0.03 0.03 70 1007.5
20260508043028 8 158 6.4 12.9 0.00 0.03 0.03 70 1007.5
20260508042030 8 158 8.0 17.7 0.00 0.03 0.03 70 1007.4
20260508041039 8 203 6.4 17.7 0.00 0.03 0.03 69 1007.4
20260508040028 8 180 6.4 17.7 0.00 0.03 0.03 68 1007.2
20260508035020 8 225 6.4 22.5 0.00 0.03 0.03 67 1007.1
20260508034019 8 225 8.0 16.1 0.00 0.03 0.03 65 1007.1
20260508033110 8 180 11.3 20.9 0.00 0.03 0.03 63 1007.0
20260508032031 8 158 12.9 29.0 0.00 0.03 0.03 62 1007.0
20260508031030 8 225 12.9 25.7 0.00 0.03 0.03 63 1007.0
20260508030028 8 180 9.7 24.1 0.00 0.03 0.03 63 1006.9
20260508025019 8 180 9.7 29.0 0.00 0.03 0.03 63 1006.9
20260508024020 8 180 9.7 25.7 0.00 0.03 0.03 66 1006.9
20260508023028 8 203 12.9 33.8 0.00 0.03 0.03 66 1006.8
20260508022032 8 180 11.3 22.5 0.00 0.03 0.03 66 1006.5
20260508021019 8 180 11.3 27.4 0.00 0.03 0.03 66 1006.7
20260508020028 8 180 11.3 30.6 0.00 0.03 0.03 66 1006.5
20260508015028 8 180 11.3 22.5 0.00 0.03 0.03 67 1006.5
20260508014019 8 225 9.7 20.9 0.00 0.03 0.03 66 1006.6
20260508013111 8 203 9.7 25.7 0.00 0.03 0.03 66 1006.4
20260508012029 8 158 8.0 25.7 0.00 0.03 0.03 67 1006.4
20260508011019 8 180 9.7 20.9 0.00 0.03 0.03 69 1006.4
20260508010019 8 158 4.8 17.7 0.00 0.03 0.03 70 1006.4
20260508005019 8 225 6.4 16.1 0.00 0.03 0.03 70 1006.4
20260508004029 8 180 3.2 11.3 0.00 0.03 0.03 69 1006.3
20260508003018 8 158 14.5 22.5 0.00 0.03 0.03 69 1006.4
20260508002020 8 158 6.4 14.5 0.00 0.03 0.03 70 1006.3
20260508001040 8 158 8.0 14.5 0.00 0.03 0.03 68 1006.3
20260508000037 8 180 6.4 12.9 0.03 0.03 0.03 68 1006.3
20260507235028 8 158 8.0 19.3 0.03 0.03 0.03 69 1006.3
20260507234036 8 180 8.0 20.9 0.03 0.03 0.03 73 1006.3
20260507233027 8 135 1.6 6.4 0.03 0.03 0.03 75 1006.3
20260507232040 8 158 6.4 14.5 0.03 0.03 0.03 75 1006.3
20260507231018 8 180 6.4 17.7 0.03 0.03 0.03 76 1006.3
20260507230019 8 158 4.8 17.7 0.00 0.00 0.00 76 1006.4
20260507225019 8 158 3.2 11.3 0.00 0.00 0.00 75 1006.3
20260507224019 8 158 12.9 19.3 0.00 0.00 0.00 74 1006.2
20260507223254 8 158 12.9 19.3 0.00 0.00 0.00 75 1006.1
20260507222019 8 158 14.5 20.9 0.00 0.00 0.00 75 1006.2
20260507221027 8 158 12.9 19.3 0.00 0.00 0.00 76 1006.0
20260507220018 8 158 12.9 19.3 0.00 0.00 0.00 77 1006.0
20260507215030 8 135 6.4 11.3 0.00 0.00 0.00 77 1006.0
20260507214027 9 158 9.7 12.9 0.00 0.00 0.00 75 1006.0
20260507213108 8 158 4.8 11.3 0.00 0.00 0.00 76 1006.1
20260507212030 8 158 4.8 9.7 0.00 0.00 0.00 77 1006.1
20260507211018 8 135 3.2 12.9 0.00 0.00 0.00 76 1006.1
20260507210018 9 0.0 4.8 0.00 0.00 0.00 75 1006.1
20260507205019 9 158 11.3 17.7 0.00 0.00 0.00 75 1006.1
20260507204027 9 0.0 3.2 0.00 0.00 0.00 75 1006.0
20260507203018 9 0.0 3.2 0.00 0.00 0.00 75 1006.0
20260507202200 9 158 6.4 9.7 0.00 0.00 0.00 75 1006.0
20260507201027 9 113 9.7 16.1 0.00 0.00 0.00 74 1005.8
20260507200109 9 113 8.0 14.5 0.00 0.00 0.00 74 1005.6
20260507195028 10 135 9.7 16.1 0.00 0.00 0.00 72 1005.7
20260507194019 10 158 12.9 22.5 0.00 0.00 0.00 72 1005.7
20260507193020 10 158 16.1 24.1 0.00 0.00 0.00 71 1005.6
20260507192030 10 158 19.3 29.0 0.00 0.00 0.00 69 1005.6
20260507191038 10 158 16.1 24.1 0.00 0.00 0.00 68 1005.4
20260507190020 10 158 14.5 20.9 0.00 0.00 0.00 70 1005.5
20260507185048 10 113 8.0 16.1 0.00 0.00 0.00 73 1005.6
20260507184018 10 135 9.7 14.5 0.00 0.00 0.00 72 1005.6
20260507183029 10 158 14.5 19.3 0.00 0.00 0.00 72 1005.7